Time,TemperatureF,DewpointF,PressureIn,WindDirection,WindDirectionDegrees,WindSpeedMPH,WindSpeedGustMPH,Humidity,HourlyPrecipIn,Conditions,Clouds,dailyrainin,SoftwareType,DateUTC
2013-02-25 00:12:00,68.4,68.0,29.92,SSE,153,0.0,0.0,98,0.00,,,0.00,weatherlink.com 1.10,2013-02-25 05:12:00,
2013-02-25 00:27:00,68.3,68.0,29.92,SSE,154,0.0,0.0,98,0.00,,,0.00,weatherlink.com 1.10,2013-02-25 05:27:00,
2013-02-25 00:42:00,68.8,68.0,29.91,ESE,104,0.0,0.0,98,0.00,,,0.00,weatherlink.com 1.10,2013-02-25 05:42:00,
2013-02-25 00:57:00,69.4,69.0,29.90,East,80,0.0,2.0,99,0.00,,,0.00,weatherlink.com 1.10,2013-02-25 05:57:00,
2013-02-25 01:12:00,70.0,69.0,29.89,ENE,74,2.0,3.0,98,0.00,,,0.00,weatherlink.com 1.10,2013-02-25 06:12:00,
2013-02-25 01:27:00,69.8,69.0,29.89,East,82,1.0,2.0,98,0.00,,,0.00,weatherlink.com 1.10,2013-02-25 06:27:00,
2013-02-25 01:42:00,69.4,69.0,29.88,East,82,0.0,0.0,98,0.00,,,0.00,weatherlink.com 1.10,2013-02-25 06:42:00,
2013-02-25 01:57:00,69.3,69.0,29.88,East,98,0.0,0.0,98,0.00,,,0.00,weatherlink.com 1.10,2013-02-25 06:57:00,
2013-02-25 02:12:00,69.2,69.0,29.88,East,88,1.0,2.0,98,0.00,,,0.00,weatherlink.com 1.10,2013-02-25 07:12:00,
2013-02-25 02:27:00,68.9,68.0,29.87,ESE,106,0.0,0.0,98,0.00,,,0.00,weatherlink.com 1.10,2013-02-25 07:27:00,
2013-02-25 02:42:00,68.7,68.0,29.87,East,81,0.0,2.0,98,0.00,,,0.00,weatherlink.com 1.10,2013-02-25 07:42:00,
2013-02-25 02:57:00,68.7,68.0,29.88,East,82,0.0,0.0,98,0.00,,,0.00,weatherlink.com 1.10,2013-02-25 07:57:00,
2013-02-25 03:12:00,68.4,68.0,29.88,East,83,0.0,0.0,98,0.00,,,0.00,weatherlink.com 1.10,2013-02-25 08:12:00,
2013-02-25 03:27:00,68.1,68.0,29.87,East,83,0.0,0.0,98,0.00,,,0.00,weatherlink.com 1.10,2013-02-25 08:27:00,
2013-02-25 03:42:00,67.9,67.0,29.86,East,84,0.0,0.0,98,0.00,,,0.00,weatherlink.com 1.10,2013-02-25 08:42:00,
2013-02-25 03:57:00,67.6,67.0,29.85,East,83,0.0,0.0,98,0.00,,,0.00,weatherlink.com 1.10,2013-02-25 08:57:00,
2013-02-25 04:12:00,67.2,67.0,29.85,East,84,0.0,0.0,98,0.00,,,0.00,weatherlink.com 1.10,2013-02-25 09:12:00,
2013-02-25 04:27:00,67.0,67.0,29.85,East,85,0.0,0.0,98,0.01,,,0.01,weatherlink.com 1.10,2013-02-25 09:27:00,
2013-02-25 04:42:00,67.0,67.0,29.85,ESE,104,0.0,0.0,98,0.01,,,0.01,weatherlink.com 1.10,2013-02-25 09:42:00,
2013-02-25 04:57:00,67.0,67.0,29.85,ESE,114,0.0,0.0,98,0.01,,,0.01,weatherlink.com 1.10,2013-02-25 09:57:00,
2013-02-25 05:12:00,66.9,66.0,29.84,ESE,114,0.0,0.0,98,0.01,,,0.01,weatherlink.com 1.10,2013-02-25 10:12:00,
2013-02-25 05:27:00,67.0,67.0,29.85,ESE,103,0.0,0.0,98,0.00,,,0.01,weatherlink.com 1.10,2013-02-25 10:27:00,
2013-02-25 05:42:00,66.9,66.0,29.85,ESE,102,0.0,0.0,98,0.00,,,0.01,weatherlink.com 1.10,2013-02-25 10:42:00,
2013-02-25 05:57:00,66.7,66.0,29.84,ESE,105,0.0,0.0,98,0.00,,,0.01,weatherlink.com 1.10,2013-02-25 10:57:00,
2013-02-25 06:12:00,66.7,66.0,29.85,ESE,106,0.0,0.0,98,0.00,,,0.01,weatherlink.com 1.10,2013-02-25 11:12:00,
2013-02-25 06:27:00,67.0,67.0,29.85,East,100,0.0,1.0,99,0.00,,,0.01,weatherlink.com 1.10,2013-02-25 11:27:00,
2013-02-25 06:42:00,66.5,66.0,29.86,East,101,0.0,0.0,98,0.00,,,0.01,weatherlink.com 1.10,2013-02-25 11:42:00,
2013-02-25 06:57:00,66.1,66.0,29.86,East,101,0.0,0.0,98,0.00,,,0.01,weatherlink.com 1.10,2013-02-25 11:57:00,
2013-02-25 07:12:00,66.4,66.0,29.86,East,101,0.0,0.0,99,0.00,,,0.01,weatherlink.com 1.10,2013-02-25 12:12:00,
2013-02-25 07:27:00,67.2,67.0,29.88,East,100,0.0,0.0,99,0.00,,,0.01,weatherlink.com 1.10,2013-02-25 12:27:00,
2013-02-25 07:42:00,67.9,68.0,29.89,East,101,0.0,0.0,99,0.00,,,0.01,weatherlink.com 1.10,2013-02-25 12:42:00,
2013-02-25 07:57:00,68.5,68.0,29.89,East,94,0.0,3.0,99,0.00,,,0.01,weatherlink.com 1.10,2013-02-25 12:57:00,
2013-02-25 08:12:00,69.1,69.0,29.89,ESE,105,0.0,4.0,98,0.00,,,0.01,weatherlink.com 1.10,2013-02-25 13:12:00,
2013-02-25 08:27:00,70.1,69.0,29.89,SE,146,0.0,3.0,97,0.00,,,0.01,weatherlink.com 1.10,2013-02-25 13:27:00,
2013-02-25 08:42:00,71.4,70.0,29.89,ESE,118,2.0,4.0,95,0.00,,,0.01,weatherlink.com 1.10,2013-02-25 13:42:00,
2013-02-25 08:57:00,73.2,70.0,29.89,East,101,3.0,7.0,89,0.00,,,0.01,weatherlink.com 1.10,2013-02-25 13:57:00,
2013-02-25 09:27:00,76.1,71.0,29.90,SE,141,1.0,6.0,85,0.00,,,0.01,weatherlink.com 1.10,2013-02-25 14:27:00,
2013-02-25 09:42:00,77.1,72.0,29.90,SE,142,3.0,6.0,84,0.00,,,0.01,weatherlink.com 1.10,2013-02-25 14:42:00,
2013-02-25 09:57:00,78.1,72.0,29.90,SSE,149,3.0,8.0,82,0.00,,,0.01,weatherlink.com 1.10,2013-02-25 14:57:00,
2013-02-25 10:12:00,78.3,73.0,29.89,SSE,157,7.0,8.0,83,0.00,,,0.01,weatherlink.com 1.10,2013-02-25 15:12:00,
2013-02-25 10:27:00,78.8,73.0,29.89,WSW,246,2.0,11.0,82,0.00,,,0.01,weatherlink.com 1.10,2013-02-25 15:27:00,
2013-02-25 10:42:00,79.4,74.0,29.88,SE,124,2.0,11.0,82,0.00,,,0.01,weatherlink.com 1.10,2013-02-25 15:42:00,
2013-02-25 10:57:00,79.8,74.0,29.89,SSW,201,7.0,12.0,81,0.00,,,0.01,weatherlink.com 1.10,2013-02-25 15:57:00,
2013-02-25 11:12:00,79.6,73.0,29.88,SW,214,5.0,13.0,81,0.00,,,0.01,weatherlink.com 1.10,2013-02-25 16:12:00,
2013-02-25 11:27:00,80.6,74.0,29.87,SE,133,9.0,12.0,80,0.00,,,0.01,weatherlink.com 1.10,2013-02-25 16:27:00,
2013-02-25 11:42:00,79.7,73.0,29.87,ESE,120,3.0,14.0,80,0.00,,,0.01,weatherlink.com 1.10,2013-02-25 16:42:00,
2013-02-25 11:57:00,80.0,74.0,29.87,SW,215,7.0,13.0,81,0.00,,,0.01,weatherlink.com 1.10,2013-02-25 16:57:00,
2013-02-25 12:12:00,81.0,74.0,29.86,SSW,208,6.0,10.0,79,0.00,,,0.01,weatherlink.com 1.10,2013-02-25 17:12:00,
2013-02-25 12:27:00,81.0,73.0,29.86,WSW,239,2.0,12.0,77,0.00,,,0.01,weatherlink.com 1.10,2013-02-25 17:27:00,
2013-02-25 12:43:00,81.7,73.0,29.85,NW,308,4.0,13.0,76,0.00,,,0.01,weatherlink.com 1.10,2013-02-25 17:43:00,
2013-02-25 12:58:00,81.1,73.0,29.85,South,184,7.0,15.0,77,0.00,,,0.01,weatherlink.com 1.10,2013-02-25 17:58:00,
2013-02-25 13:13:00,81.2,74.0,29.84,South,169,5.0,15.0,78,0.00,,,0.01,weatherlink.com 1.10,2013-02-25 18:13:00,
2013-02-25 13:28:00,80.3,73.0,29.84,SW,231,6.0,14.0,79,0.00,,,0.00,weatherlink.com 1.10,2013-02-25 18:28:00,
2013-02-25 13:43:00,80.3,73.0,29.83,SSE,149,3.0,13.0,79,0.00,,,0.00,weatherlink.com 1.10,2013-02-25 18:43:00,
2013-02-25 13:58:00,80.5,73.0,29.83,SSE,167,7.0,11.0,78,0.00,,,0.00,weatherlink.com 1.10,2013-02-25 18:58:00,
2013-02-25 14:13:00,80.3,74.0,29.83,SSW,192,1.0,10.0,80,0.00,,,0.00,weatherlink.com 1.10,2013-02-25 19:13:00,
2013-02-25 14:28:00,80.9,73.0,29.82,SW,231,4.0,10.0,78,0.00,,,0.00,weatherlink.com 1.10,2013-02-25 19:28:00,
2013-02-25 14:43:00,82.0,74.0,29.81,ESE,119,4.0,11.0,77,0.00,,,0.00,weatherlink.com 1.10,2013-02-25 19:43:00,
2013-02-25 14:58:00,81.4,74.0,29.81,SE,139,6.0,10.0,77,0.00,,,0.00,weatherlink.com 1.10,2013-02-25 19:58:00,
2013-02-25 15:13:00,81.6,74.0,29.81,SSE,158,3.0,9.0,77,0.00,,,0.00,weatherlink.com 1.10,2013-02-25 20:13:00,
2013-02-25 15:28:00,80.9,73.0,29.81,SSE,166,5.0,12.0,78,0.00,,,0.00,weatherlink.com 1.10,2013-02-25 20:28:00,
2013-02-25 15:43:00,80.3,74.0,29.81,SE,124,5.0,13.0,80,0.00,,,0.00,weatherlink.com 1.10,2013-02-25 20:43:00,
2013-02-25 15:58:00,79.8,74.0,29.81,SE,145,4.0,10.0,82,0.00,,,0.00,weatherlink.com 1.10,2013-02-25 20:58:00,
2013-02-25 16:13:00,79.2,73.0,29.81,South,173,5.0,12.0,81,0.00,,,0.00,weatherlink.com 1.10,2013-02-25 21:13:00,
2013-02-25 16:28:00,79.2,73.0,29.81,SW,217,5.0,12.0,80,0.00,,,0.00,weatherlink.com 1.10,2013-02-25 21:28:00,
2013-02-25 16:43:00,79.7,73.0,29.80,SE,134,4.0,11.0,79,0.00,,,0.00,weatherlink.com 1.10,2013-02-25 21:43:00,
2013-02-25 16:58:00,80.1,73.0,29.80,WSW,252,4.0,11.0,78,0.00,,,0.00,weatherlink.com 1.10,2013-02-25 21:58:00,
2013-02-25 17:13:00,79.2,72.0,29.79,SW,222,11.0,11.0,79,0.00,,,0.00,weatherlink.com 1.10,2013-02-25 22:13:00,
2013-02-25 17:28:00,79.1,72.0,29.80,South,179,6.0,7.0,80,0.00,,,0.00,weatherlink.com 1.10,2013-02-25 22:28:00,
2013-02-25 17:43:00,78.2,72.0,29.80,SSE,158,2.0,8.0,80,0.00,,,0.00,weatherlink.com 1.10,2013-02-25 22:43:00,
2013-02-25 17:58:00,77.7,72.0,29.80,WSW,239,3.0,8.0,82,0.00,,,0.00,weatherlink.com 1.10,2013-02-25 22:58:00,
2013-02-25 18:14:00,77.1,72.0,29.81,South,177,0.0,5.0,83,0.00,,,0.00,weatherlink.com 1.10,2013-02-25 23:14:00,
2013-02-25 18:28:00,76.5,72.0,29.80,South,179,1.0,5.0,85,0.00,,,0.00,weatherlink.com 1.10,2013-02-25 23:28:00,
2013-02-25 18:43:00,75.8,72.0,29.80,SSE,159,0.0,6.0,87,0.00,,,0.00,weatherlink.com 1.10,2013-02-25 23:43:00,
2013-02-25 18:58:00,75.1,72.0,29.81,SE,144,2.0,6.0,89,0.00,,,0.00,weatherlink.com 1.10,2013-02-25 23:58:00,
2013-02-25 19:13:00,74.7,72.0,29.81,SSE,152,1.0,5.0,90,0.00,,,0.00,weatherlink.com 1.10,2013-02-26 00:13:00,
2013-02-25 19:28:00,74.3,72.0,29.80,SE,124,1.0,4.0,91,0.00,,,0.00,weatherlink.com 1.10,2013-02-26 00:28:00,
2013-02-25 19:43:00,74.0,71.0,29.81,SSE,150,0.0,4.0,91,0.00,,,0.00,weatherlink.com 1.10,2013-02-26 00:43:00,
2013-02-25 19:58:00,73.7,71.0,29.81,ESE,121,0.0,0.0,91,0.00,,,0.00,weatherlink.com 1.10,2013-02-26 00:58:00,
2013-02-25 20:13:00,73.4,71.0,29.81,SE,131,0.0,2.0,92,0.00,,,0.00,weatherlink.com 1.10,2013-02-26 01:13:00,
2013-02-25 20:28:00,73.3,71.0,29.81,SSE,149,2.0,3.0,92,0.00,,,0.00,weatherlink.com 1.10,2013-02-26 01:28:00,
2013-02-25 20:44:00,73.3,71.0,29.81,ESE,117,0.0,0.0,92,0.00,,,0.00,weatherlink.com 1.10,2013-02-26 01:44:00,
2013-02-25 20:59:00,73.1,71.0,29.81,ESE,120,0.0,2.0,92,0.00,,,0.00,weatherlink.com 1.10,2013-02-26 01:59:00,
2013-02-25 21:14:00,73.3,71.0,29.82,East,100,1.0,4.0,92,0.00,,,0.00,weatherlink.com 1.10,2013-02-26 02:14:00,
2013-02-25 21:29:00,73.5,71.0,29.82,ESE,108,2.0,4.0,91,0.00,,,0.00,weatherlink.com 1.10,2013-02-26 02:29:00,
2013-02-25 21:44:00,73.5,71.0,29.82,SE,144,1.0,4.0,91,0.00,,,0.00,weatherlink.com 1.10,2013-02-26 02:44:00,
2013-02-25 21:59:00,73.3,71.0,29.82,SE,146,0.0,2.0,91,0.00,,,0.00,weatherlink.com 1.10,2013-02-26 02:59:00,
2013-02-25 22:14:00,72.9,71.0,29.82,SE,138,0.0,2.0,92,0.00,,,0.00,weatherlink.com 1.10,2013-02-26 03:14:00,
2013-02-25 22:29:00,72.6,70.0,29.82,SE,127,0.0,1.0,92,0.00,,,0.00,weatherlink.com 1.10,2013-02-26 03:29:00,
2013-02-25 22:44:00,72.2,70.0,29.83,SE,136,0.0,1.0,93,0.00,,,0.00,weatherlink.com 1.10,2013-02-26 03:44:00,
2013-02-25 22:59:00,71.9,70.0,29.82,SE,124,0.0,0.0,94,0.00,,,0.00,weatherlink.com 1.10,2013-02-26 03:59:00,
2013-02-25 23:14:00,72.0,70.0,29.82,ESE,114,0.0,0.0,94,0.00,,,0.00,weatherlink.com 1.10,2013-02-26 04:14:00,
2013-02-25 23:29:00,72.2,70.0,29.81,ESE,112,0.0,6.0,94,0.00,,,0.00,weatherlink.com 1.10,2013-02-26 04:29:00,
2013-02-25 23:44:00,72.7,71.0,29.81,SE,146,2.0,7.0,94,0.00,,,0.00,weatherlink.com 1.10,2013-02-26 04:44:00,
2013-02-25 23:59:00,73.0,71.0,29.81,SSE,155,6.0,7.0,94,0.00,,,0.00,weatherlink.com 1.10,2013-02-26 04:59:00,